Temp
59 59 59 60 59 59 59 60 60 60 60 60 60 60 59 59 58 51 48 56 57 62 60 54 53 51 50 45 47 45 36 34 36 37 41 49 47 56 56 54 58 62 57 61 66
59 58 59 59 58 58 59 59 59 59 59 59 59 59 59 59 49 47 60 62 62 62 52 48 45 47 40 41 43 39 33 36 45 46 44 48 47 49 47 50 52 55 61 62 64
58 58 58 58 58 58 58 59 58 59 59 59 59 59 58 55 42 48 62 62 61 58 53 51 48 45 36 39 38 37 33 41 43 45 45 44 45 50 47 44 50 50 55 58 57
58 58 58 58 58 58 59 58 58 58 58 58 58 58 57 48 32 50 61 61 60 55 50 47 43 36 33 31 38 30 37 39 41 44 44 41 43 40 45 47 55 56 55 56 57
57 57 57 57 57 58 58 58 58 58 58 58 58 57 48 37 39 55 59 57 53 50 45 42 38 36 29 33 35 31 34 39 40 40 41 43 38 38 40 47 51 52 57 57 57
57 56 57 57 57 57 57 57 57 57 58 58 58 56 41 31 52 55 53 51 50 46 43 42 39 40 34 33 30 34 35 35 37 37 38 36 37 40 42 46 46 49 50 53 56
56 56 56 56 57 57 57 57 57 57 58 58 57 52 39 37 50 51 52 48 49 47 41 44 43 37 36 30 37 35 28 31 33 35 33 38 30 32 42 46 45 47 49 52 53
56 56 56 56 56 56 56 57 57 57 56 58 58 45 33 50 48 50 51 46 49 49 46 46 45 38 34 36 33 28 27 19 31 33 35 33 21 34 41 41 41 44 46 49 50
56 55 56 56 55 55 56 56 56 56 56 55 45 39 34 53 46 49 47 44 45 45 45 50 42 35 33 26 21 24 17 20 25 34 32 30 24 34 40 40 39 42 44 48 50
55 55 55 55 55 55 55 56 54 50 50 52 48 34 40 37 44 47 48 46 40 40 37 36 32 26 24 20 12 18 19 22 21 29 30 27 27 33 37 38 37 39 38 41 46
55 55 55 55 55 55 47 39 34 33 35 31 32 33 36 43 46 44 46 42 39 34 26 30 22 17 24 26 26 24 21 19 24 30 28 25 26 30 35 36 36 38 40 41 43
55 55 55 55 55 53 43 35 36 37 28 36 37 37 41 42 35 40 44 34 32 26 28 22 15 27 29 29 27 25 21 21 27 31 29 25 22 30 33 34 37 37 38 39 42
54 54 54 54 54 44 37 37 43 43 21 31 37 38 39 40 33 35 39 34 28 24 23 15 24 31 28 26 24 23 21 23 23 27 29 26 21 24 31 35 37 39 41 42 43
54 54 54 54 43 39 36 42 42 39 9 27 33 37 39 37 31 42 41 34 30 18 24 16 28 28 26 22 25 17 29 27 25 20 12 26 10 24 29 30 33 35 38 39 42
54 54 54 53 39 35 40 42 41 34 4 31 32 43 38 31 33 35 41 33 24 25 19 19 23 24 20 23 28 21 28 24 22 18 17 18 13 20 28 24 26 30 36 38 41
54 53 53 44 38 40 41 39 35 14 4 24 31 30 29 31 31 35 33 34 32 21 22 24 31 27 22 30 28 28 22 21 14 12 1 16 12 16 17 20 24 28 28 36 39
53 53 50 46 36 41 38 32 15 10 25 20 23 29 27 25 27 24 20 12 10 9 11 21 22 30 30 16 20 18 10 -0 -3 -6 0 21 17 14 20 22 23 24 29 30 30
53 52 46 45 41 39 34 21 8 12 12 29 27 26 21 25 22 16 8 8 18 8 4 5 8 21 31 21 11 14 17 10 1 1 6 21 8 14 22 24 25 25 27 30 30
52 39 37 39 42 37 25 8 15 19 27 24 23 13 15 24 16 12 7 8 15 13 8 9 9 28 28 27 21 12 11 20 13 0 -0 12 18 21 25 23 23 22 25 26 28
41 34 34 41 39 32 18 19 19 30 30 26 12 13 -1 7 6 7 9 19 13 22 25 18 10 24 24 23 22 19 26 11 7 1 -5 7 10 9 13 15 20 19 22 23 25
38 30 36 40 37 24 13 15 24 32 31 22 14 9 12 7 9 5 14 23 25 24 26 12 14 13 17 5 9 12 14 18 17 12 2 -0 0 17 14 16 16 18 21 22 23
36 27 36 37 20 12 11 20 31 29 31 27 25 20 10 7 3 12 14 21 29 25 8 15 15 1 8 19 18 19 19 19 9 5 10 8 5 19 18 18 18 18 20 21 22
32 32 35 34 16 16 20 23 28 26 25 22 20 24 16 9 4 13 19 26 29 24 10 13 13 10 5 11 15 14 20 19 17 15 7 5 6 19 19 17 18 17 18 19 21
32 26 27 29 26 17 19 21 19 28 26 28 23 26 15 6 16 10 18 26 29 27 32 29 10 8 6 10 12 13 14 18 14 7 8 8 8 13 15 14 16 17 17 17 18
31 28 26 25 24 25 25 23 21 19 27 26 21 21 18 12 6 11 19 21 24 29 24 15 10 3 13 12 14 14 14 14 11 10 7 10 9 11 15 14 15 17 17 17 17
32 28 29 27 27 26 27 25 23 24 24 21 20 24 22 16 16 8 14 19 18 18 11 14 9 0 11 7 10 13 14 16 16 13 11 11 10 16 17 17 15 15 16 15 16
35 34 30 30 28 26 26 26 25 28 28 29 27 22 19 21 25 26 25 24 20 14 18 16 9 5 1 2 8 8 14 13 11 11 11 5 12 16 15 13 13 14 15 15 16
MSLP
1026.06 1025.68 1025.31 1024.70 1024.36 1023.90 1023.27 1022.71 1022.28 1021.95 1021.45 1021.01 1020.54 1020.05 1019.76 1019.28 1018.66 1018.17 1017.45 1017.46 1017.42 1017.27 1016.78 1016.57 1016.45 1016.42 1016.30 1016.15 1015.88 1015.75 1015.47 1013.74 1011.96 1010.88 1009.16 1008.82 1009.21 1008.64 1008.60 1007.62 1006.76 1005.93 1005.02 1004.77 1004.29
1026.04 1025.55 1025.05 1024.69 1024.33 1023.81 1023.21 1022.74 1022.21 1021.82 1021.35 1020.78 1020.26 1019.81 1019.30 1018.87 1018.55 1017.92 1017.44 1017.41 1017.39 1017.09 1017.25 1017.19 1017.07 1016.95 1016.92 1016.54 1016.45 1016.09 1015.17 1012.61 1011.23 1011.41 1010.89 1010.09 1009.86 1009.65 1009.53 1007.37 1006.67 1006.35 1005.13 1004.90 1004.76
1026.11 1025.75 1025.20 1024.73 1024.17 1023.63 1022.95 1022.43 1022.06 1021.52 1021.06 1020.52 1019.98 1019.59 1019.12 1018.80 1018.74 1018.12 1017.64 1017.52 1017.42 1017.43 1017.51 1017.40 1017.30 1017.15 1017.02 1016.79 1016.65 1015.90 1014.65 1013.94 1012.95 1012.49 1012.14 1011.20 1009.51 1010.09 1009.06 1007.38 1006.50 1006.67 1005.86 1005.46 1005.37
1026.07 1025.59 1025.08 1024.41 1023.99 1023.36 1022.71 1022.23 1021.72 1021.31 1020.83 1020.19 1019.79 1019.38 1019.11 1018.97 1019.03 1018.20 1017.78 1017.63 1017.54 1017.54 1017.63 1017.56 1017.71 1017.69 1017.82 1017.60 1017.49 1016.80 1015.76 1015.09 1014.09 1013.26 1012.75 1012.07 1010.61 1010.23 1010.01 1006.46 1006.99 1006.56 1005.81 1005.51 1005.11
1025.82 1025.43 1024.96 1024.41 1023.78 1023.16 1022.41 1021.81 1021.38 1020.99 1020.50 1020.06 1019.68 1019.60 1019.57 1019.59 1018.84 1017.86 1017.59 1017.57 1017.55 1017.61 1017.56 1017.70 1017.83 1017.89 1017.79 1017.63 1017.43 1016.98 1016.00 1015.37 1014.63 1013.69 1013.03 1012.57 1011.31 1010.54 1009.02 1008.04 1007.90 1007.11 1005.78 1004.85 1004.77
1025.72 1025.28 1024.83 1024.29 1023.71 1023.04 1022.20 1021.52 1020.95 1020.54 1019.95 1019.52 1019.34 1019.54 1019.72 1019.23 1018.03 1017.91 1017.74 1017.62 1017.63 1017.58 1017.59 1017.68 1017.74 1017.69 1017.54 1017.37 1017.64 1016.86 1016.17 1015.31 1014.77 1013.91 1012.92 1012.40 1011.12 1010.64 1008.01 1008.68 1008.00 1007.31 1006.02 1005.08 1004.35
1025.94 1025.42 1024.75 1024.09 1023.31 1022.83 1022.07 1021.11 1020.44 1019.97 1019.34 1019.12 1019.11 1019.31 1019.47 1018.62 1018.00 1017.85 1017.60 1017.57 1017.49 1017.45 1017.43 1017.31 1017.26 1017.76 1017.77 1017.57 1016.83 1016.58 1016.28 1015.35 1014.29 1013.35 1012.61 1012.03 1010.57 1009.15 1008.49 1008.15 1007.02 1006.39 1005.43 1004.77 1004.28
1025.84 1025.33 1024.62 1024.00 1023.37 1022.57 1021.82 1020.76 1019.85 1019.48 1019.09 1018.45 1018.20 1019.05 1019.06 1018.05 1017.86 1017.65 1017.50 1017.37 1017.14 1016.91 1016.85 1016.52 1016.67 1017.18 1017.44 1017.13 1016.50 1016.77 1016.25 1014.70 1012.50 1012.57 1011.93 1011.89 1010.41 1009.12 1008.48 1007.49 1006.55 1005.75 1005.23 1004.46 1003.86
1025.81 1025.39 1024.74 1024.11 1023.24 1022.53 1021.46 1020.50 1019.45 1019.25 1018.99 1018.27 1018.44 1018.86 1018.60 1017.71 1017.69 1017.37 1017.33 1017.26 1016.96 1016.62 1016.23 1016.03 1016.42 1016.82 1017.06 1017.39 1016.94 1016.28 1015.53 1014.15 1012.26 1011.55 1011.55 1011.32 1010.06 1008.57 1007.74 1006.91 1005.96 1005.26 1004.74 1004.05 1003.26
1025.72 1025.19 1024.66 1023.99 1023.25 1022.39 1021.63 1020.55 1019.90 1019.63 1019.29 1018.33 1018.92 1019.49 1018.78 1018.53 1018.14 1017.53 1016.92 1016.82 1016.77 1016.50 1016.27 1016.45 1016.61 1016.92 1017.06 1017.46 1016.90 1015.69 1015.22 1013.44 1012.18 1009.83 1010.83 1010.01 1009.17 1007.87 1007.00 1006.21 1005.35 1004.79 1004.43 1003.65 1002.84
1025.71 1024.96 1024.35 1023.75 1023.18 1022.32 1021.98 1021.18 1021.52 1021.26 1021.54 1021.23 1020.67 1020.61 1019.79 1018.84 1018.24 1017.41 1016.81 1016.68 1016.69 1016.98 1017.33 1017.06 1017.32 1017.17 1016.52 1016.59 1016.12 1015.42 1014.52 1013.16 1010.47 1009.81 1010.15 1008.70 1008.23 1006.87 1005.44 1004.98 1004.30 1003.91 1003.48 1002.89 1002.32
1025.26 1024.64 1024.05 1023.45 1022.82 1022.44 1022.45 1022.77 1023.26 1023.60 1022.29 1021.04 1020.69 1020.55 1019.65 1019.18 1018.16 1017.14 1016.85 1017.07 1017.07 1017.37 1017.70 1017.86 1017.23 1016.17 1016.17 1015.83 1015.53 1014.62 1013.70 1012.02 1009.53 1009.36 1009.07 1008.35 1006.79 1005.23 1004.30 1003.56 1002.99 1002.81 1002.62 1002.24 1001.55
1025.33 1024.88 1024.20 1023.18 1022.41 1022.72 1023.07 1023.55 1023.44 1023.21 1023.38 1021.21 1020.18 1019.59 1019.02 1018.86 1018.31 1017.44 1017.08 1016.98 1017.26 1017.46 1017.81 1018.22 1016.28 1015.96 1015.89 1014.88 1014.59 1013.52 1013.08 1011.47 1010.30 1008.55 1007.71 1007.28 1004.46 1004.71 1002.80 1002.70 1002.20 1001.91 1001.55 1001.26 1000.74
1025.29 1024.71 1024.22 1023.42 1023.05 1023.10 1023.10 1023.07 1022.93 1023.11 1023.24 1021.24 1019.64 1018.85 1018.71 1018.50 1018.17 1017.19 1016.90 1017.28 1017.68 1017.84 1017.68 1017.50 1016.15 1015.67 1015.03 1014.58 1014.04 1012.77 1011.98 1011.31 1009.83 1009.71 1008.02 1007.76 1005.60 1002.75 1002.28 1002.01 1001.68 1001.33 1000.83 1000.48 1000.06
1024.96 1024.59 1023.97 1023.49 1023.80 1023.79 1023.57 1023.30 1023.04 1023.46 1023.43 1021.23 1019.73 1018.59 1018.86 1019.18 1018.59 1017.36 1017.07 1017.13 1017.80 1018.00 1018.60 1016.75 1016.13 1015.19 1014.65 1013.88 1013.60 1012.67 1011.84 1010.99 1009.89 1009.63 1009.03 1007.16 1006.98 1003.36 1002.75 1002.63 1002.68 1002.22 1000.80 1000.06 999.56
1024.67 1024.33 1023.80 1023.86 1024.09 1023.45 1023.14 1023.02 1023.22 1024.10 1022.95 1021.57 1020.47 1019.85 1019.66 1019.31 1018.88 1018.08 1017.84 1018.06 1017.95 1018.12 1017.81 1016.94 1015.52 1015.14 1014.25 1013.19 1013.24 1012.70 1011.88 1010.60 1010.11 1010.25 1009.66 1007.34 1007.21 1004.62 1005.08 1005.10 1004.21 1003.25 1001.80 1000.20 999.46
1024.29 1023.80 1023.63 1023.55 1023.41 1022.99 1023.13 1023.59 1024.36 1024.12 1023.51 1022.24 1021.43 1021.04 1020.84 1020.33 1019.83 1019.56 1019.83 1020.04 1020.05 1019.71 1018.53 1016.21 1015.29 1014.11 1013.73 1014.08 1013.24 1013.19 1013.03 1012.76 1012.10 1011.43 1010.18 1007.66 1007.08 1006.09 1006.53 1006.27 1005.76 1004.66 1003.04 1002.12 1001.20
1023.85 1023.55 1023.14 1023.08 1023.23 1023.09 1023.18 1024.03 1024.51 1024.28 1023.60 1022.45 1022.03 1021.72 1021.61 1021.27 1021.04 1021.21 1021.32 1021.31 1020.67 1020.75 1020.10 1018.61 1015.27 1014.48 1013.45 1014.31 1014.06 1013.76 1013.61 1013.49 1013.08 1012.46 1010.05 1007.33 1006.80 1007.02 1007.32 1007.21 1006.71 1005.86 1004.64 1003.46 1002.59
1023.35 1023.62 1023.54 1023.17 1023.07 1023.27 1024.05 1024.58 1023.78 1023.48 1022.99 1022.80 1022.44 1022.71 1022.57 1022.27 1022.51 1022.55 1022.37 1021.64 1020.83 1020.59 1020.58 1019.20 1016.30 1014.52 1013.87 1013.71 1013.99 1013.29 1013.25 1013.15 1012.76 1012.07 1011.78 1008.40 1007.42 1007.55 1007.02 1007.25 1007.02 1006.40 1005.39 1004.54 1003.63
1023.79 1024.02 1023.50 1022.88 1022.95 1023.68 1024.65 1024.13 1023.03 1021.93 1021.94 1022.61 1023.46 1023.50 1023.85 1023.20 1023.51 1023.23 1022.16 1020.29 1019.85 1019.38 1018.99 1019.25 1017.27 1014.74 1014.04 1013.95 1013.33 1013.28 1012.87 1012.95 1013.01 1012.66 1011.78 1009.43 1009.05 1009.05 1008.31 1008.09 1007.86 1007.27 1006.54 1005.83 1004.97
1023.80 1023.80 1022.67 1022.72 1023.13 1024.09 1024.56 1023.49 1022.25 1021.24 1021.46 1022.17 1022.51 1023.35 1023.60 1023.94 1023.70 1023.28 1021.50 1019.40 1018.62 1018.47 1018.50 1018.90 1018.45 1015.80 1015.33 1014.51 1013.87 1013.61 1013.09 1013.12 1013.00 1012.76 1012.31 1011.04 1010.35 1010.35 1010.28 1009.78 1009.25 1008.56 1007.81 1007.02 1006.33
1023.76 1023.78 1022.67 1022.86 1023.92 1024.03 1023.63 1022.21 1021.09 1020.63 1020.67 1021.15 1021.58 1022.22 1023.11 1023.44 1023.21 1022.57 1020.57 1018.85 1017.35 1017.62 1018.08 1018.28 1017.86 1016.87 1015.45 1013.61 1013.59 1013.29 1013.03 1013.09 1012.93 1012.64 1012.47 1012.36 1010.98 1010.79 1011.00 1010.68 1010.20 1009.57 1008.83 1008.02 1007.34
1023.62 1022.81 1022.70 1022.81 1023.37 1023.27 1022.04 1021.14 1020.48 1020.09 1020.06 1020.32 1020.61 1020.93 1021.73 1022.66 1022.71 1020.86 1019.33 1017.71 1017.42 1017.42 1017.49 1017.80 1017.47 1016.78 1015.41 1014.55 1013.76 1013.38 1012.84 1012.87 1012.81 1012.67 1012.50 1012.64 1011.16 1010.97 1011.45 1011.26 1010.98 1010.42 1009.69 1009.08 1008.09
1023.55 1022.82 1022.63 1022.65 1021.82 1021.78 1021.43 1020.51 1019.99 1018.87 1019.01 1019.27 1019.63 1019.90 1020.91 1021.54 1021.30 1020.03 1018.47 1017.18 1016.98 1017.10 1017.03 1016.98 1017.06 1017.43 1016.77 1015.04 1014.37 1013.70 1012.85 1012.75 1013.00 1013.13 1012.76 1012.62 1011.97 1011.52 1011.91 1011.98 1011.49 1011.16 1010.58 1010.05 1009.23
1023.42 1022.02 1021.37 1021.50 1020.57 1020.43 1020.31 1019.35 1018.50 1018.34 1018.16 1018.61 1018.72 1018.55 1018.97 1019.75 1019.58 1018.85 1017.55 1017.04 1016.59 1016.20 1016.56 1016.92 1016.90 1017.11 1015.86 1014.89 1014.28 1013.51 1012.96 1012.64 1012.97 1013.08 1013.27 1012.81 1012.72 1012.57 1012.46 1012.62 1012.48 1012.11 1011.52 1010.73 1010.18
1022.90 1022.36 1020.73 1019.51 1019.28 1018.91 1018.42 1017.21 1016.99 1016.93 1017.28 1017.06 1017.15 1016.37 1017.47 1017.62 1016.85 1016.77 1016.70 1016.81 1016.73 1016.54 1016.95 1017.06 1016.85 1016.54 1015.55 1014.05 1013.59 1013.15 1012.53 1012.54 1012.75 1013.03 1013.21 1013.25 1012.99 1012.98 1012.77 1012.96 1012.95 1012.68 1012.19 1011.85 1011.21
1022.10 1021.93 1020.93 1019.13 1018.41 1017.98 1016.98 1016.14 1015.44 1015.80 1015.07 1014.99 1015.00 1015.48 1015.47 1014.06 1014.73 1014.89 1015.33 1015.50 1015.73 1016.04 1016.69 1017.18 1016.86 1016.81 1015.76 1014.43 1013.71 1013.07 1012.28 1012.39 1012.72 1013.21 1013.66 1013.69 1013.43 1013.40 1013.46 1013.52 1013.35 1013.21 1013.23 1012.98 1012.47
Wind_Speed
19 18 19 21 20 21 21 21 22 20 20 20 21 21 21 23 20 5 7 7 7 15 12 7 9 8 7 3 4 2 8 18 31 30 28 13 14 17 9 18 16 17 6 7 12
18 18 20 21 20 21 21 21 22 22 22 22 22 21 21 20 9 3 12 13 13 15 7 7 6 8 4 3 4 4 11 29 27 18 18 20 21 16 10 22 22 16 15 7 10
21 22 21 20 21 21 24 24 23 23 23 24 22 20 18 12 2 4 12 14 13 11 7 5 5 5 4 3 3 5 19 17 22 20 20 23 28 14 21 29 28 17 18 9 6
20 21 23 23 23 24 25 25 24 24 24 22 20 16 15 3 4 1 11 11 9 5 4 5 5 5 3 5 6 12 17 19 22 20 19 20 26 21 19 30 18 17 12 10 13
18 21 23 24 24 24 25 25 26 24 23 20 17 12 5 4 6 4 12 10 4 5 6 5 5 4 4 11 10 12 17 16 18 22 21 19 25 25 27 25 22 22 24 25 17
18 20 23 25 25 25 26 27 26 25 23 20 11 5 1 2 4 5 7 4 3 3 4 3 4 5 8 7 5 9 18 20 19 19 22 24 27 23 25 17 23 22 24 19 16
20 21 23 24 25 25 26 28 27 24 20 13 7 1 1 7 0 5 6 3 3 3 4 4 4 2 4 10 12 11 14 18 24 25 24 23 26 29 26 20 21 19 21 19 19
19 21 23 24 25 25 26 27 26 21 11 16 5 4 5 4 3 3 5 6 6 7 6 9 7 6 5 7 12 12 12 13 23 18 18 16 22 25 19 18 21 20 16 18 13
20 22 23 25 24 27 24 25 22 10 21 11 6 4 5 4 6 11 4 7 7 7 7 8 4 8 5 6 11 5 13 19 26 20 19 17 22 23 19 19 18 16 17 18 16
22 22 24 25 25 26 21 22 15 9 15 3 4 3 1 6 6 5 6 7 7 6 5 1 2 3 2 3 10 19 17 22 25 32 18 23 23 24 24 25 21 20 9 10 14
22 22 25 26 27 19 11 5 7 7 7 3 9 4 7 7 6 6 8 6 2 3 4 2 2 8 16 11 17 19 19 24 31 28 20 24 22 25 25 21 20 19 16 13 16
21 21 24 26 26 11 4 6 4 6 9 7 11 8 10 6 10 7 3 4 3 9 2 5 8 14 8 10 18 20 21 24 27 21 16 17 27 24 23 21 20 16 15 12 13
21 21 23 26 21 5 3 4 5 2 1 8 5 4 3 4 5 7 2 3 4 4 3 6 15 14 14 15 20 21 17 22 24 23 19 19 28 20 25 22 22 21 20 18 18
21 22 22 25 6 5 1 4 5 5 6 5 3 2 5 6 5 7 2 2 4 5 6 6 4 7 20 17 16 17 11 21 24 17 16 8 16 19 14 15 15 17 17 17 19
20 21 23 16 4 4 4 5 4 5 5 6 4 0 7 3 6 4 3 2 8 9 5 12 11 20 19 12 9 13 18 19 23 20 14 6 7 1 5 6 12 15 17 17 16
20 21 23 4 2 4 5 4 3 8 6 6 5 9 12 5 4 5 4 4 6 5 3 15 9 10 9 12 7 17 10 23 4 3 1 8 7 5 7 12 16 13 16 11 11
18 21 16 1 4 5 5 4 6 5 6 8 5 7 15 5 5 3 6 8 0 8 10 18 4 5 3 11 7 6 7 6 8 6 7 7 9 3 11 15 14 18 14 13 11
19 19 4 3 1 3 3 6 5 3 6 4 5 15 5 3 4 4 5 4 2 2 3 4 18 5 6 4 8 7 4 2 8 7 19 14 5 5 9 10 14 15 14 12 12
16 3 4 2 1 2 6 3 8 6 4 4 11 2 5 3 1 6 3 4 6 5 2 6 9 15 15 4 6 7 2 5 7 4 3 5 3 7 21 16 16 17 15 15 14
1 3 4 3 2 4 5 7 6 6 4 3 5 4 6 5 3 3 2 5 4 7 6 4 18 5 4 5 5 4 5 4 2 6 6 6 2 8 21 19 18 16 15 15 14
2 3 3 3 3 5 4 8 6 6 8 9 6 5 10 4 5 3 7 5 6 5 5 4 6 10 7 2 7 6 1 2 3 4 4 5 4 6 12 13 14 13 14 13 13
1 4 2 3 2 2 3 8 7 8 9 10 7 9 8 6 5 6 9 9 4 2 2 8 4 5 12 13 7 6 3 4 2 5 3 3 5 4 7 11 13 13 14 14 12
3 3 1 4 4 5 5 7 6 7 8 7 7 10 3 8 3 8 6 7 10 2 4 3 4 9 10 8 4 1 4 2 5 5 4 3 5 5 6 10 11 12 13 13 14
3 5 2 3 1 4 4 6 6 7 10 7 7 10 5 4 7 8 7 4 4 6 20 13 1 6 10 14 6 13 11 13 2 3 4 5 8 9 10 11 13 12 12 12 12
3 5 4 7 8 13 8 5 9 7 9 6 5 16 9 7 4 12 16 14 8 17 4 4 6 4 14 17 15 17 13 6 3 5 3 4 5 5 8 8 9 9 11 13 13
6 4 4 5 4 11 15 13 18 15 7 7 16 15 14 14 14 9 6 4 8 3 3 1 6 2 10 8 6 6 6 5 3 3 5 5 4 4 5 6 8 9 11 11 12
1 3 6 9 13 12 7 13 13 14 14 18 17 17 15 28 20 19 14 12 12 8 11 5 3 1 7 3 6 2 3 3 2 3 3 2 4 4 3 7 9 10 9 9 11
Wind_Direction
1 358 355 351 349 343 338 340 337 336 334 332 330 328 326 321 323 317 55 29 12 8 357 351 2 345 348 295 247 358 239 237 239 240 247 291 269 272 314 282 295 291 225 263 288
357 0 352 352 346 340 336 334 335 333 333 331 329 329 330 325 326 322 24 22 0 356 358 355 330 331 309 260 294 210 239 238 252 268 263 281 274 288 309 283 276 280 286 324 341
2 355 350 346 346 341 335 338 333 332 332 330 332 331 332 331 325 54 9 1 12 22 359 326 308 315 249 239 208 243 253 275 273 294 300 295 285 298 257 262 260 281 284 293 336
359 355 349 348 345 340 338 335 334 332 330 331 330 340 329 345 320 43 23 10 19 30 16 353 350 323 289 277 322 289 280 288 291 290 294 291 298 289 290 272 287 276 268 276 283
356 353 349 344 341 341 336 333 330 329 330 327 327 344 351 1 259 316 4 345 10 18 2 330 330 324 300 308 299 275 284 281 294 297 289 286 280 285 275 288 289 304 287 272 269
356 351 348 345 342 339 333 329 327 329 323 315 326 345 299 275 239 327 345 341 344 329 330 337 275 277 279 265 282 270 279 280 281 279 286 284 279 275 274 298 289 284 283 290 266
350 349 346 340 338 337 331 326 322 326 331 337 306 223 228 236 6 329 343 300 275 278 265 241 217 189 305 300 273 267 290 285 277 270 273 277 279 270 279 273 270 262 271 276 273
347 344 343 342 340 336 332 323 321 326 335 337 325 111 244 261 275 349 286 287 245 258 233 240 235 241 192 240 275 284 285 281 272 271 264 259 274 280 283 283 272 265 270 270 271
351 345 343 343 339 338 335 325 323 335 340 336 70 108 284 324 353 307 271 283 297 262 249 256 235 231 263 256 290 198 274 280 284 268 270 263 273 273 270 275 278 274 261 262 271
342 342 343 343 340 337 341 326 342 33 339 1 83 72 318 300 284 263 269 259 261 313 354 28 227 245 283 138 269 290 284 280 276 285 280 276 269 269 273 271 271 262 255 278 278
344 340 341 341 343 353 348 7 15 355 20 283 276 256 284 270 271 274 291 315 9 74 341 290 297 255 274 246 262 276 272 273 276 275 273 271 272 266 265 263 262 261 253 248 257
340 341 340 341 340 24 22 61 126 241 313 296 261 249 261 250 305 309 22 352 0 308 305 334 256 274 284 280 286 283 279 282 282 286 279 279 267 261 261 250 245 244 250 244 242
340 341 340 340 336 22 95 54 313 292 63 294 238 266 288 307 271 270 345 319 294 289 273 185 258 299 294 293 292 283 277 285 285 300 284 268 272 259 258 254 254 256 251 244 245
336 338 340 343 15 323 85 327 335 104 68 285 316 229 360 292 251 295 287 311 322 274 299 231 270 283 301 290 286 285 297 294 289 296 294 32 292 283 257 255 253 253 246 240 242
332 334 335 346 273 325 302 318 296 61 9 299 308 344 323 289 269 284 323 356 239 250 81 253 301 300 301 274 310 277 306 293 291 287 290 300 253 199 295 316 347 325 272 247 243
327 329 331 343 323 259 315 333 61 41 273 331 328 325 336 290 273 301 321 6 275 287 290 254 256 268 235 283 292 309 300 302 343 306 312 261 179 322 14 339 341 333 349 289 257
323 323 329 155 252 321 344 47 26 104 341 301 303 323 317 269 297 28 329 328 102 2 333 323 234 270 248 348 319 33 344 313 345 353 235 279 288 351 2 355 342 333 349 356 359
318 323 293 229 277 350 51 44 73 218 237 289 295 305 258 8 279 323 337 338 5 111 295 328 323 2 298 235 225 290 268 334 305 320 301 298 235 112 27 358 344 341 346 1 8
324 319 294 241 250 69 63 47 202 202 221 273 319 347 291 220 239 18 215 228 216 177 114 315 268 307 289 255 116 291 339 259 273 293 340 273 46 234 356 357 356 349 354 356 358
339 352 269 179 129 69 81 238 221 206 180 182 202 162 244 252 21 47 243 217 235 190 147 240 291 282 280 3 324 153 303 330 345 304 310 304 39 331 347 347 350 350 356 356 349
59 338 251 143 77 63 201 226 231 209 166 197 215 256 230 276 201 241 245 271 209 203 190 198 228 279 11 236 277 340 319 308 263 242 269 304 277 333 355 336 341 348 349 350 347
203 267 193 114 38 210 200 202 211 197 196 240 229 227 198 197 264 242 239 229 212 99 261 215 255 266 245 282 200 185 239 287 256 289 252 278 268 22 358 338 346 354 353 355 350
263 252 254 108 232 219 264 242 219 195 199 207 232 205 153 194 248 212 238 253 264 241 216 242 243 294 329 349 343 198 264 283 282 266 227 268 288 76 358 348 356 358 356 355 0
277 280 270 204 219 174 251 232 237 229 225 204 239 217 162 227 233 266 249 257 219 246 280 286 295 213 261 266 268 298 295 307 160 255 306 241 291 338 356 358 354 360 358 360 3
217 253 186 257 228 230 223 229 220 236 215 202 241 227 188 222 221 234 256 271 253 278 259 129 256 199 255 263 277 273 279 275 218 243 236 300 281 312 347 355 343 351 3 5 8
280 264 229 261 268 252 239 242 239 242 204 211 227 239 211 225 207 207 223 225 247 309 126 220 272 70 288 283 240 246 221 257 223 285 273 285 289 10 327 345 8 5 5 12 7
191 267 278 292 288 268 256 254 252 237 232 231 236 240 222 226 234 239 238 255 237 209 269 236 223 189 263 303 307 339 217 245 210 213 222 276 240 341 331 356 359 9 14 13 6